Tracking 18844 objects as of 21-Nov-2017
HD Live streaming from Space Station
objects crossing your sky now

COSMOS 718

Track COSMOS 718 now!
10-day predictions
COSMOS 718 is classified as:


NORAD ID: 7685
Int'l Code: 1975-016H
Perigee: 1,436.0 km
Apogee: 1,496.0 km
Inclination: 74.0 °
Period: 115.1 minutes
Semi major axis: 7837 km
RCS: 0.6831 m2 (medium)
Launch date: February 28, 1975
Source: Commonwealth of Independent States (former USSR) (CIS)
Launch site: PLESETSK MISSILE AND SPACE COMPLEX (PKMTR)
aabbcc
Your satellite tracking list
Your tracking list is empty




NASA's NSSDC Master Catalog

Two Line Element Set (TLE):
1  7685U 75016H   17324.77851698 -.00000020 +00000-0 -29334-4 0  9992
2  7685 074.0049 076.6345 0038230 053.9342 056.8646 12.51346437951786
Source of the keplerian elements: AFSPC